This is the latest recevied weather packets stored in our database for station/object KB9HUO. If no packets are shown the sender has not sent any weather packets the latest 10 day(s).
| Time | Temp. | Humidity | Pressure | Rain* | Wind** | Luminosity | Snow |
|---|---|---|---|---|---|---|---|
| 1777550949 | 6.11° C | 94% | 1018.3 hPa | 0 mm | - | 24 W/m² | - |
| 1777550646 | 6.11° C | 95% | 1018.4 hPa | 0 mm | - | 23 W/m² | - |
| 1777550342 | 5.56° C | 95% | 1018.3 hPa | 0 mm | - | 22 W/m² | - |
| 1777550038 | 5.56° C | 96% | 1018.4 hPa | 0 mm | - | 21 W/m² | - |
| 1777549735 | 5° C | 96% | 1018.3 hPa | 0 mm | - | 20 W/m² | - |
| 1777549435 | 5° C | 96% | 1018.2 hPa | 0 mm | - | 18 W/m² | - |
| 1777549132 | 5° C | 96% | 1018 hPa | 0 mm | - | 17 W/m² | - |
| 1777548829 | 4.44° C | 96% | 1017.8 hPa | 0 mm | - | 16 W/m² | - |
| 1777548526 | 3.89° C | 95% | 1017.7 hPa | 0 mm | - | 14 W/m² | - |
| 1777548223 | 3.89° C | 95% | 1017.6 hPa | 0 mm | - | 12 W/m² | - |
| 1777547919 | 3.89° C | 95% | 1017.8 hPa | 0 mm | - | 11 W/m² | - |
| 1777547615 | 3.89° C | 95% | 1017.7 hPa | 0 mm | - | 9 W/m² | - |
| 1777547312 | 3.89° C | 94% | 1017.5 hPa | 0 mm | - | 7 W/m² | - |
| 1777547009 | 3.89° C | 94% | 1017.5 hPa | 0 mm | - | 6 W/m² | - |
| 1777546707 | 3.89° C | 94% | 1017.4 hPa | 0 mm | - | 4 W/m² | - |
| 1777546403 | 3.89° C | 94% | 1017.6 hPa | 0 mm | - | 2 W/m² | - |
| 1777546100 | 4.44° C | 94% | 1017.4 hPa | 0 mm | - | 1 W/m² | - |
| 1777545796 | 4.44° C | 94% | 1017.4 hPa | 0 mm | - | 1 W/m² | - |
| 1777545493 | 4.44° C | 94% | 1017.1 hPa | 0 mm | - | 0 W/m² | - |
| 1777545190 | 4.44° C | 93% | 1017.4 hPa | 0 mm | - | 0 W/m² | - |
| 1777544888 | 4.44° C | 93% | 1017.2 hPa | 0 mm | - | 0 W/m² | - |
| 1777544584 | 5° C | 93% | 1017.1 hPa | 0 mm | - | 0 W/m² | - |
| 1777544280 | 5° C | 93% | 1017.1 hPa | 0 mm | - | 0 W/m² | - |
| 1777543978 | 5° C | 93% | 1017.1 hPa | 0 mm | - | 0 W/m² | - |
| 1777543674 | 5° C | 93% | 1016.8 hPa | 0 mm | - | 0 W/m² | - |
* Rain latest hour (hover to see other rain measurements)
** Current wind speed in m/s (hover to see current wind gust speed)